TimeMDT,TemperatureF,Dew PointF,Humidity,Sea Level PressureIn,VisibilityMPH,Wind Direction,Wind SpeedMPH,Gust SpeedMPH,PrecipitationIn,Events,Conditions,WindDirDegrees,DateUTC
12:53 AM,61.0,53.1,75,30.17,10.0,NNE,6.9,-,N/A,,Partly Cloudy,20,2013-07-17 06:53:00
1:53 AM,60.1,54.0,80,30.16,10.0,NNE,8.1,-,N/A,,Scattered Clouds,30,2013-07-17 07:53:00
2:53 AM,60.1,54.0,80,30.14,10.0,North,8.1,-,N/A,,Scattered Clouds,10,2013-07-17 08:53:00
3:53 AM,60.1,54.0,80,30.16,10.0,NNW,3.5,-,N/A,,Partly Cloudy,340,2013-07-17 09:53:00
4:53 AM,60.1,55.0,83,30.16,10.0,North,4.6,-,N/A,,Scattered Clouds,350,2013-07-17 10:53:00
5:53 AM,60.1,55.0,83,30.16,10.0,Calm,Calm,-,0.00,,Mostly Cloudy,0,2013-07-17 11:53:00
6:53 AM,61.0,55.9,83,30.16,10.0,Calm,Calm,-,0.00,,Mostly Cloudy,0,2013-07-17 12:53:00
7:53 AM,60.1,57.0,90,30.16,10.0,SSW,4.6,-,N/A,,Mostly Cloudy,210,2013-07-17 13:53:00
8:53 AM,61.0,55.9,83,30.16,10.0,Calm,Calm,-,N/A,,Mostly Cloudy,0,2013-07-17 14:53:00
9:53 AM,62.1,57.0,84,30.16,10.0,SW,4.6,-,0.00,Rain,Light Rain,220,2013-07-17 15:53:00
10:53 AM,63.0,57.0,81,30.15,10.0,Calm,Calm,-,0.00,,Mostly Cloudy,0,2013-07-17 16:53:00
11:53 AM,64.0,57.0,78,30.14,10.0,Calm,Calm,-,N/A,,Mostly Cloudy,0,2013-07-17 17:53:00
12:53 PM,70.0,57.9,65,30.11,10.0,Variable,3.5,-,N/A,,Mostly Cloudy,0,2013-07-17 18:53:00
1:53 PM,73.9,57.0,55,30.08,10.0,Calm,Calm,-,N/A,,Scattered Clouds,0,2013-07-17 19:53:00
2:53 PM,78.1,57.0,48,30.06,10.0,Variable,3.5,-,N/A,,Scattered Clouds,0,2013-07-17 20:53:00
3:53 PM,79.0,57.9,48,30.02,10.0,Calm,Calm,-,N/A,,Scattered Clouds,0,2013-07-17 21:53:00
4:53 PM,80.1,57.9,47,30.01,10.0,ENE,3.5,-,N/A,,Scattered Clouds,70,2013-07-17 22:53:00
5:53 PM,80.1,59.0,48,29.98,10.0,East,4.6,-,N/A,,Scattered Clouds,90,2013-07-17 23:53:00
6:53 PM,80.1,60.1,50,29.96,10.0,ENE,6.9,-,N/A,,Mostly Cloudy,60,2013-07-18 00:53:00
7:53 PM,78.1,60.1,54,29.96,10.0,ESE,6.9,-,N/A,,Mostly Cloudy,110,2013-07-18 01:53:00
8:53 PM,75.9,61.0,60,30.03,10.0,West,8.1,-,N/A,,Mostly Cloudy,270,2013-07-18 02:53:00
9:53 PM,75.9,60.1,58,30.03,10.0,SW,8.1,-,N/A,,Mostly Cloudy,230,2013-07-18 03:53:00
10:53 PM,73.0,55.9,55,30.02,10.0,SW,11.5,-,N/A,,Partly Cloudy,230,2013-07-18 04:53:00
11:53 PM,71.1,57.0,61,30.03,10.0,WSW,8.1,-,N/A,,Partly Cloudy,240,2013-07-18 05:53:00